owner,sensor,date,latitude,longitude,vertical_datum,wind_speed,wind_to_direction,wind_speed_of_gust,qcFlag 
ADCP,ioos:station:wmo:42887:1,2016-08-01T00:00:00Z,28.1910,-88.4960,48.2,0.3,279.0,99.0,'11111222,11111222,11144222' 
ADCP,ioos:station:wmo:42887:1,2016-08-01T00:20:00Z,28.1910,-88.4960,48.2,1.4,276.0,99.0,'11111222,11111222,11144222' 
ADCP,ioos:station:wmo:42887:1,2016-08-01T00:40:00Z,28.1910,-88.4960,48.2,1.2,236.0,99.0,'11111222,11111222,11144222' 
ADCP,ioos:station:wmo:42887:1,2016-08-01T01:00:00Z,28.1910,-88.4960,48.2,1.7,201.0,99.0,'11111222,11111222,11144222' 
ADCP,ioos:station:wmo:42887:1,2016-08-01T01:20:00Z,28.1910,-88.4960,48.2,0.1,208.0,99.0,'11111222,11111222,11144222' 
ADCP,ioos:station:wmo:42887:1,2016-08-01T01:40:00Z,28.1910,-88.4960,48.2,0.4,278.0,99.0,'11111222,11111222,11144222' 
ADCP,ioos:station:wmo:42887:1,2016-08-01T02:00:00Z,28.1910,-88.4960,48.2,0.6,352.0,99.0,'11111222,11111222,11144222' 
ADCP,ioos:station:wmo:42887:1,2016-08-01T02:20:00Z,28.1910,-88.4960,48.2,0.0,293.0,99.0,'11111222,11111222,11144222' 
ADCP,ioos:station:wmo:42887:1,2016-08-01T02:40:00Z,28.1910,-88.4960,48.2,0.6,43.0,99.0,'11111222,11111222,11144222' 
ADCP,ioos:station:wmo:42887:1,2016-08-01T03:00:00Z,28.1910,-88.4960,48.2,0.7,99.0,99.0,'11111222,11111222,11144222' 
ADCP,ioos:station:wmo:42887:1,2016-08-01T03:20:00Z,28.1910,-88.4960,48.2,0.4,134.0,99.0,'11111222,11111222,11144222' 
ADCP,ioos:station:wmo:42887:1,2016-08-01T03:40:00Z,28.1910,-88.4960,48.2,1.4,155.0,99.0,'11111222,11111222,11144222' 
ADCP,ioos:station:wmo:42887:1,2016-08-01T04:00:00Z,28.1910,-88.4960,48.2,1.7,146.0,99.0,'11111222,11111222,11144222' 
ADCP,ioos:station:wmo:42887:1,2016-08-01T04:20:00Z,28.1910,-88.4960,48.2,1.7,168.0,99.0,'11111222,11111222,11144222' 
ADCP,ioos:station:wmo:42887:1,2016-08-01T04:40:00Z,28.1910,-88.4960,48.2,1.3,134.0,99.0,'11111222,11111222,11144222' 
ADCP,ioos:station:wmo:42887:1,2016-08-01T05:00:00Z,28.1910,-88.4960,48.2,2.2,145.0,99.0,'11111222,11111222,11144222' 
ADCP,ioos:station:wmo:42887:1,2016-08-01T05:20:00Z,28.1910,-88.4960,48.2,2.5,137.0,99.0,'11111222,11111222,11144222' 
ADCP,ioos:station:wmo:42887:1,2016-08-01T05:40:00Z,28.1910,-88.4960,48.2,3.7,115.0,99.0,'11111222,11111222,11144222' 
ADCP,ioos:station:wmo:42887:1,2016-08-01T06:00:00Z,28.1910,-88.4960,48.2,3.1,152.0,99.0,'11111222,11111222,11144222' 
ADCP,ioos:station:wmo:42887:1,2016-08-01T06:20:00Z,28.1910,-88.4960,48.2,2.0,158.0,99.0,'11111222,11111222,11144222' 
ADCP,ioos:station:wmo:42887:1,2016-08-01T06:40:00Z,28.1910,-88.4960,48.2,2.7,173.0,99.0,'11111222,11111222,11144222' 
ADCP,ioos:station:wmo:42887:1,2016-08-01T07:00:00Z,28.1910,-88.4960,48.2,3.2,163.0,99.0,'11111222,11111222,11144222' 
ADCP,ioos:station:wmo:42887:1,2016-08-01T07:20:00Z,28.1910,-88.4960,48.2,4.1,165.0,99.0,'11111222,11111222,11144222' 
ADCP,ioos:station:wmo:42887:1,2016-08-01T07:40:00Z,28.1910,-88.4960,48.2,4.4,163.0,99.0,'11111222,11111222,11144222' 
ADCP,ioos:station:wmo:42887:1,2016-08-01T08:00:00Z,28.1910,-88.4960,48.2,4.4,177.0,99.0,'11111222,11111222,11144222' 
ADCP,ioos:station:wmo:42887:1,2016-08-01T08:20:00Z,28.1910,-88.4960,48.2,3.0,180.0,99.0,'11111222,11111222,11144222' 
ADCP,ioos:station:wmo:42887:1,2016-08-01T08:40:00Z,28.1910,-88.4960,48.2,3.9,180.0,99.0,'11111222,11111222,11144222' 
ADCP,ioos:station:wmo:42887:1,2016-08-01T09:00:00Z,28.1910,-88.4960,48.2,2.9,169.0,99.0,'11111222,11111222,11144222' 
ADCP,ioos:station:wmo:42887:1,2016-08-01T09:20:00Z,28.1910,-88.4960,48.2,4.4,182.0,99.0,'11111222,11111222,11144222' 
ADCP,ioos:station:wmo:42887:1,2016-08-01T09:40:00Z,28.1910,-88.4960,48.2,4.7,205.0,99.0,'11111222,11111222,11144222' 
ADCP,ioos:station:wmo:42887:1,2016-08-01T10:00:00Z,28.1910,-88.4960,48.2,3.3,183.0,99.0,'11111222,11111222,11144222' 
ADCP,ioos:station:wmo:42887:1,2016-08-01T10:20:00Z,28.1910,-88.4960,48.2,3.6,201.0,99.0,'11111222,11111222,11144222' 
ADCP,ioos:station:wmo:42887:1,2016-08-01T10:40:00Z,28.1910,-88.4960,48.2,2.8,200.0,99.0,'11111222,11111222,11144222' 
ADCP,ioos:station:wmo:42887:1,2016-08-01T11:00:00Z,28.1910,-88.4960,48.2,1.2,243.0,99.0,'11111222,11111222,11144222' 
ADCP,ioos:station:wmo:42887:1,2016-08-01T11:20:00Z,28.1910,-88.4960,48.2,2.6,218.0,99.0,'11111222,11111222,11144222' 
ADCP,ioos:station:wmo:42887:1,2016-08-01T11:40:00Z,28.1910,-88.4960,48.2,2.1,195.0,99.0,'11111222,11111222,11144222' 
ADCP,ioos:station:wmo:42887:1,2016-08-01T12:00:00Z,28.1910,-88.4960,48.2,1.7,207.0,99.0,'11111222,11111222,11144222' 
ADCP,ioos:station:wmo:42887:1,2016-08-01T12:20:00Z,28.1910,-88.4960,48.2,0.5,270.0,99.0,'11111222,11111222,11144222' 
ADCP,ioos:station:wmo:42887:1,2016-08-01T12:40:00Z,28.1910,-88.4960,48.2,1.1,256.0,99.0,'11111222,11111222,11144222' 
ADCP,ioos:station:wmo:42887:1,2016-08-01T13:00:00Z,28.1910,-88.4960,48.2,1.5,298.0,99.0,'11111222,11111222,11144222' 
ADCP,ioos:station:wmo:42887:1,2016-08-01T13:20:00Z,28.1910,-88.4960,48.2,0.4,261.0,99.0,'11111222,11111222,11144222' 
ADCP,ioos:station:wmo:42887:1,2016-08-01T13:40:00Z,28.1910,-88.4960,48.2,0.0,290.0,99.0,'11111222,11111222,11144222' 
ADCP,ioos:station:wmo:42887:1,2016-08-01T14:00:00Z,28.1910,-88.4960,48.2,0.6,329.0,99.0,'11111222,11111222,11144222' 
ADCP,ioos:station:wmo:42887:1,2016-08-01T14:20:00Z,28.1910,-88.4960,48.2,0.5,340.0,99.0,'11111222,11111222,11144222' 
ADCP,ioos:station:wmo:42887:1,2016-08-01T14:40:00Z,28.1910,-88.4960,48.2,1.7,6.0,99.0,'11111222,11111222,11144222' 
ADCP,ioos:station:wmo:42887:1,2016-08-01T15:00:00Z,28.1910,-88.4960,48.2,2.6,51.0,99.0,'11111222,11111222,11144222' 
ADCP,ioos:station:wmo:42887:1,2016-08-01T15:20:00Z,28.1910,-88.4960,48.2,2.1,31.0,99.0,'11111222,11111222,11144222' 
ADCP,ioos:station:wmo:42887:1,2016-08-01T15:40:00Z,28.1910,-88.4960,48.2,2.1,28.0,99.0,'11111222,11111222,11144222' 
ADCP,ioos:station:wmo:42887:1,2016-08-01T16:00:00Z,28.1910,-88.4960,48.2,1.7,50.0,99.0,'11111222,11111222,11144222' 
ADCP,ioos:station:wmo:42887:1,2016-08-01T16:20:00Z,28.1910,-88.4960,48.2,2.7,39.0,99.0,'11111222,11111222,11144222' 
ADCP,ioos:station:wmo:42887:1,2016-08-01T16:40:00Z,28.1910,-88.4960,48.2,2.1,42.0,99.0,'11111222,11111222,11144222' 
ADCP,ioos:station:wmo:42887:1,2016-08-01T17:00:00Z,28.1910,-88.4960,48.2,2.6,49.0,99.0,'11111222,11111222,11144222' 
ADCP,ioos:station:wmo:42887:1,2016-08-01T17:20:00Z,28.1910,-88.4960,48.2,2.6,54.0,99.0,'11111222,11111222,11144222' 
ADCP,ioos:station:wmo:42887:1,2016-08-01T17:40:00Z,28.1910,-88.4960,48.2,2.5,60.0,99.0,'11111222,11111222,11144222' 
ADCP,ioos:station:wmo:42887:1,2016-08-01T18:00:00Z,28.1910,-88.4960,48.2,2.6,64.0,99.0,'11111222,11111222,11144222' 
ADCP,ioos:station:wmo:42887:1,2016-08-01T18:20:00Z,28.1910,-88.4960,48.2,0.9,87.0,99.0,'11111222,11111222,11144222' 
ADCP,ioos:station:wmo:42887:1,2016-08-01T18:40:00Z,28.1910,-88.4960,48.2,2.3,72.0,99.0,'11111222,11111222,11144222' 
ADCP,ioos:station:wmo:42887:1,2016-08-01T19:00:00Z,28.1910,-88.4960,48.2,2.1,64.0,99.0,'11111222,11111222,11144222' 
ADCP,ioos:station:wmo:42887:1,2016-08-01T19:20:00Z,28.1910,-88.4960,48.2,1.6,73.0,99.0,'11111222,11111222,11144222' 
ADCP,ioos:station:wmo:42887:1,2016-08-01T19:40:00Z,28.1910,-88.4960,48.2,2.1,68.0,99.0,'11111222,11111222,11144222' 
ADCP,ioos:station:wmo:42887:1,2016-08-01T20:00:00Z,28.1910,-88.4960,48.2,2.0,90.0,99.0,'11111222,11111222,11144222' 
ADCP,ioos:station:wmo:42887:1,2016-08-01T20:20:00Z,28.1910,-88.4960,48.2,2.1,92.0,99.0,'11111222,11111222,11144222' 
ADCP,ioos:station:wmo:42887:1,2016-08-01T20:40:00Z,28.1910,-88.4960,48.2,1.9,82.0,99.0,'11111222,11111222,11144222' 
ADCP,ioos:station:wmo:42887:1,2016-08-01T21:00:00Z,28.1910,-88.4960,48.2,1.9,99.0,99.0,'11111222,11111222,11144222' 
ADCP,ioos:station:wmo:42887:1,2016-08-01T21:20:00Z,28.1910,-88.4960,48.2,1.9,73.0,99.0,'11111222,11111222,11144222' 
ADCP,ioos:station:wmo:42887:1,2016-08-01T21:40:00Z,28.1910,-88.4960,48.2,2.2,94.0,99.0,'11111222,11111222,11144222' 
ADCP,ioos:station:wmo:42887:1,2016-08-01T22:00:00Z,28.1910,-88.4960,48.2,1.6,91.0,99.0,'11111222,11111222,11144222' 
ADCP,ioos:station:wmo:42887:1,2016-08-01T22:20:00Z,28.1910,-88.4960,48.2,1.8,116.0,99.0,'11111222,11111222,11144222' 
ADCP,ioos:station:wmo:42887:1,2016-08-01T22:40:00Z,28.1910,-88.4960,48.2,2.6,110.0,99.0,'11111222,11111222,11144222' 
ADCP,ioos:station:wmo:42887:1,2016-08-01T23:00:00Z,28.1910,-88.4960,48.2,2.1,129.0,99.0,'11111222,11111222,11144222' 
ADCP,ioos:station:wmo:42887:1,2016-08-01T23:20:00Z,28.1910,-88.4960,48.2,2.3,139.0,99.0,'11111222,11111222,11144222' 
ADCP,ioos:station:wmo:42887:1,2016-08-01T23:40:00Z,28.1910,-88.4960,48.2,2.8,144.0,99.0,'11111222,11111222,11144222' 
ADCP,ioos:station:wmo:42887:1,2016-08-02T00:00:00Z,28.1910,-88.4960,48.2,1.9,104.0,99.0,'11111222,11111222,11144222' 
ADCP,ioos:station:wmo:42887:1,2016-08-02T00:20:00Z,28.1910,-88.4960,48.2,2.3,129.0,99.0,'11111222,11111222,11144222' 
ADCP,ioos:station:wmo:42887:1,2016-08-02T00:40:00Z,28.1910,-88.4960,48.2,3.1,116.0,99.0,'11111222,11111222,11144222' 
ADCP,ioos:station:wmo:42887:1,2016-08-02T01:00:00Z,28.1910,-88.4960,48.2,2.5,123.0,99.0,'11111222,11111222,11144222' 
ADCP,ioos:station:wmo:42887:1,2016-08-02T01:20:00Z,28.1910,-88.4960,48.2,3.1,116.0,99.0,'11111222,11111222,11144222' 
ADCP,ioos:station:wmo:42887:1,2016-08-02T01:40:00Z,28.1910,-88.4960,48.2,2.7,103.0,99.0,'11111222,11111222,11144222' 
ADCP,ioos:station:wmo:42887:1,2016-08-02T02:00:00Z,28.1910,-88.4960,48.2,2.4,117.0,99.0,'11111222,11111222,11144222' 
ADCP,ioos:station:wmo:42887:1,2016-08-02T02:20:00Z,28.1910,-88.4960,48.2,2.1,115.0,99.0,'11111222,11111222,11144222' 
ADCP,ioos:station:wmo:42887:1,2016-08-02T02:40:00Z,28.1910,-88.4960,48.2,1.5,126.0,99.0,'11111222,11111222,11144222' 
ADCP,ioos:station:wmo:42887:1,2016-08-02T03:00:00Z,28.1910,-88.4960,48.2,2.0,130.0,99.0,'11111222,11111222,11144222' 
ADCP,ioos:station:wmo:42887:1,2016-08-02T03:20:00Z,28.1910,-88.4960,48.2,2.9,116.0,99.0,'11111222,11111222,11144222' 
ADCP,ioos:station:wmo:42887:1,2016-08-02T03:40:00Z,28.1910,-88.4960,48.2,2.0,133.0,99.0,'11111222,11111222,11144222' 
ADCP,ioos:station:wmo:42887:1,2016-08-02T04:00:00Z,28.1910,-88.4960,48.2,1.9,146.0,99.0,'11111222,11111222,11144222' 
ADCP,ioos:station:wmo:42887:1,2016-08-02T04:20:00Z,28.1910,-88.4960,48.2,2.8,146.0,99.0,'11111222,11111222,11144222' 
ADCP,ioos:station:wmo:42887:1,2016-08-02T04:40:00Z,28.1910,-88.4960,48.2,2.9,137.0,99.0,'11111222,11111222,11144222' 
ADCP,ioos:station:wmo:42887:1,2016-08-02T05:00:00Z,28.1910,-88.4960,48.2,2.4,152.0,99.0,'11111222,11111222,11144222' 
ADCP,ioos:station:wmo:42887:1,2016-08-02T05:20:00Z,28.1910,-88.4960,48.2,2.5,147.0,99.0,'11111222,11111222,11144222' 
ADCP,ioos:station:wmo:42887:1,2016-08-02T05:40:00Z,28.1910,-88.4960,48.2,3.0,142.0,99.0,'11111222,11111222,11144222' 
ADCP,ioos:station:wmo:42887:1,2016-08-02T06:00:00Z,28.1910,-88.4960,48.2,3.5,143.0,99.0,'11111222,11111222,11144222' 
ADCP,ioos:station:wmo:42887:1,2016-08-02T06:20:00Z,28.1910,-88.4960,48.2,3.3,142.0,99.0,'11111222,11111222,11144222' 
ADCP,ioos:station:wmo:42887:1,2016-08-02T06:40:00Z,28.1910,-88.4960,48.2,3.4,139.0,99.0,'11111222,11111222,11144222' 
ADCP,ioos:station:wmo:42887:1,2016-08-02T07:00:00Z,28.1910,-88.4960,48.2,2.6,151.0,99.0,'11111222,11111222,11144222' 
ADCP,ioos:station:wmo:42887:1,2016-08-02T07:20:00Z,28.1910,-88.4960,48.2,2.7,155.0,99.0,'11111222,11111222,11144222' 
ADCP,ioos:station:wmo:42887:1,2016-08-02T07:40:00Z,28.1910,-88.4960,48.2,2.1,169.0,99.0,'11111222,11111222,11144222' 
ADCP,ioos:station:wmo:42887:1,2016-08-02T08:00:00Z,28.1910,-88.4960,48.2,1.8,159.0,99.0,'11111222,11111222,11144222' 
ADCP,ioos:station:wmo:42887:1,2016-08-02T08:20:00Z,28.1910,-88.4960,48.2,1.0,183.0,99.0,'11111222,11111222,11144222' 
ADCP,ioos:station:wmo:42887:1,2016-08-02T08:40:00Z,28.1910,-88.4960,48.2,2.5,158.0,99.0,'11111222,11111222,11144222' 
ADCP,ioos:station:wmo:42887:1,2016-08-02T09:00:00Z,28.1910,-88.4960,48.2,3.0,184.0,99.0,'11111222,11111222,11144222' 
ADCP,ioos:station:wmo:42887:1,2016-08-02T09:20:00Z,28.1910,-88.4960,48.2,2.0,160.0,99.0,'11111222,11111222,11144222' 
ADCP,ioos:station:wmo:42887:1,2016-08-02T09:40:00Z,28.1910,-88.4960,48.2,1.3,168.0,99.0,'11111222,11111222,11144222' 
ADCP,ioos:station:wmo:42887:1,2016-08-02T10:00:00Z,28.1910,-88.4960,48.2,0.7,166.0,99.0,'11111222,11111222,11144222' 
ADCP,ioos:station:wmo:42887:1,2016-08-02T10:20:00Z,28.1910,-88.4960,48.2,0.8,167.0,99.0,'11111222,11111222,11144222' 
ADCP,ioos:station:wmo:42887:1,2016-08-02T10:40:00Z,28.1910,-88.4960,48.2,1.2,183.0,99.0,'11111222,11111222,11144222' 
ADCP,ioos:station:wmo:42887:1,2016-08-02T11:00:00Z,28.1910,-88.4960,48.2,0.9,181.0,99.0,'11111222,11111222,11144222' 
ADCP,ioos:station:wmo:42887:1,2016-08-02T11:20:00Z,28.1910,-88.4960,48.2,0.6,171.0,99.0,'11111222,11111222,11144222' 
ADCP,ioos:station:wmo:42887:1,2016-08-02T11:40:00Z,28.1910,-88.4960,48.2,1.0,173.0,99.0,'11111222,11111222,11144222' 
ADCP,ioos:station:wmo:42887:1,2016-08-02T12:00:00Z,28.1910,-88.4960,48.2,0.9,161.0,99.0,'11111222,11111222,11144222' 
ADCP,ioos:station:wmo:42887:1,2016-08-02T12:20:00Z,28.1910,-88.4960,48.2,0.6,187.0,99.0,'11111222,11111222,11144222' 
ADCP,ioos:station:wmo:42887:1,2016-08-02T12:40:00Z,28.1910,-88.4960,48.2,0.8,191.0,99.0,'11111222,11111222,11144222' 
ADCP,ioos:station:wmo:42887:1,2016-08-02T13:00:00Z,28.1910,-88.4960,48.2,0.4,168.0,99.0,'11111222,11111222,11144222' 
ADCP,ioos:station:wmo:42887:1,2016-08-02T13:20:00Z,28.1910,-88.4960,48.2,0.9,185.0,99.0,'11111222,11111222,11144222' 
ADCP,ioos:station:wmo:42887:1,2016-08-02T13:40:00Z,28.1910,-88.4960,48.2,0.8,221.0,99.0,'11111222,11111222,11144222' 
ADCP,ioos:station:wmo:42887:1,2016-08-02T14:00:00Z,28.1910,-88.4960,48.2,0.0,263.0,99.0,'11111222,11111222,11144222' 
ADCP,ioos:station:wmo:42887:1,2016-08-02T14:20:00Z,28.1910,-88.4960,48.2,0.0,142.0,99.0,'11111222,11111222,11144222' 
ADCP,ioos:station:wmo:42887:1,2016-08-02T14:40:00Z,28.1910,-88.4960,48.2,0.4,147.0,99.0,'11111222,11111222,11144222' 
ADCP,ioos:station:wmo:42887:1,2016-08-02T15:00:00Z,28.1910,-88.4960,48.2,0.2,148.0,99.0,'11111222,11111222,11144222' 
ADCP,ioos:station:wmo:42887:1,2016-08-02T15:20:00Z,28.1910,-88.4960,48.2,0.5,149.0,99.0,'11111222,11111222,11144222' 
ADCP,ioos:station:wmo:42887:1,2016-08-02T15:40:00Z,28.1910,-88.4960,48.2,1.0,72.0,99.0,'11111222,11111222,11144222' 
ADCP,ioos:station:wmo:42887:1,2016-08-02T16:00:00Z,28.1910,-88.4960,48.2,0.5,57.0,99.0,'11111222,11111222,11144222' 
ADCP,ioos:station:wmo:42887:1,2016-08-02T16:20:00Z,28.1910,-88.4960,48.2,0.0,30.0,99.0,'11111222,11111222,11144222' 
ADCP,ioos:station:wmo:42887:1,2016-08-02T16:40:00Z,28.1910,-88.4960,48.2,0.3,49.0,99.0,'11111222,11111222,11144222' 
ADCP,ioos:station:wmo:42887:1,2016-08-02T17:00:00Z,28.1910,-88.4960,48.2,2.3,152.0,99.0,'11111222,11111222,11144222' 
ADCP,ioos:station:wmo:42887:1,2016-08-02T17:20:00Z,28.1910,-88.4960,48.2,1.1,118.0,99.0,'11111222,11111222,11144222' 
ADCP,ioos:station:wmo:42887:1,2016-08-02T17:40:00Z,28.1910,-88.4960,48.2,0.9,86.0,99.0,'11111222,11111222,11144222' 
ADCP,ioos:station:wmo:42887:1,2016-08-02T18:00:00Z,28.1910,-88.4960,48.2,0.9,61.0,99.0,'11111222,11111222,11144222' 
ADCP,ioos:station:wmo:42887:1,2016-08-02T18:20:00Z,28.1910,-88.4960,48.2,0.9,50.0,99.0,'11111222,11111222,11144222' 
ADCP,ioos:station:wmo:42887:1,2016-08-02T18:40:00Z,28.1910,-88.4960,48.2,0.1,283.0,99.0,'11111222,11111222,11144222' 
ADCP,ioos:station:wmo:42887:1,2016-08-02T19:00:00Z,28.1910,-88.4960,48.2,0.0,296.0,99.0,'11111222,11111222,11144222' 
ADCP,ioos:station:wmo:42887:1,2016-08-02T19:20:00Z,28.1910,-88.4960,48.2,0.6,22.0,99.0,'11111222,11111222,11144222' 
ADCP,ioos:station:wmo:42887:1,2016-08-02T19:40:00Z,28.1910,-88.4960,48.2,0.7,44.0,99.0,'11111222,11111222,11144222' 
ADCP,ioos:station:wmo:42887:1,2016-08-02T20:00:00Z,28.1910,-88.4960,48.2,1.4,37.0,99.0,'11111222,11111222,11144222' 
ADCP,ioos:station:wmo:42887:1,2016-08-02T20:20:00Z,28.1910,-88.4960,48.2,1.2,21.0,99.0,'11111222,11111222,11144222' 
ADCP,ioos:station:wmo:42887:1,2016-08-02T20:40:00Z,28.1910,-88.4960,48.2,1.0,24.0,99.0,'11111222,11111222,11144222' 
ADCP,ioos:station:wmo:42887:1,2016-08-02T21:00:00Z,28.1910,-88.4960,48.2,0.8,16.0,99.0,'11111222,11111222,11144222' 
ADCP,ioos:station:wmo:42887:1,2016-08-02T21:20:00Z,28.1910,-88.4960,48.2,2.1,21.0,99.0,'11111222,11111222,11144222' 
ADCP,ioos:station:wmo:42887:1,2016-08-02T21:40:00Z,28.1910,-88.4960,48.2,1.8,36.0,99.0,'11111222,11111222,11144222' 
ADCP,ioos:station:wmo:42887:1,2016-08-02T22:00:00Z,28.1910,-88.4960,48.2,1.9,7.0,99.0,'11111222,11111222,11144222' 
ADCP,ioos:station:wmo:42887:1,2016-08-02T22:20:00Z,28.1910,-88.4960,48.2,1.7,47.0,99.0,'11111222,11111222,11144222' 
ADCP,ioos:station:wmo:42887:1,2016-08-02T22:40:00Z,28.1910,-88.4960,48.2,1.3,18.0,99.0,'11111222,11111222,11144222' 
ADCP,ioos:station:wmo:42887:1,2016-08-02T23:00:00Z,28.1910,-88.4960,48.2,1.5,22.0,99.0,'11111222,11111222,11144222' 
ADCP,ioos:station:wmo:42887:1,2016-08-02T23:20:00Z,28.1910,-88.4960,48.2,1.4,16.0,99.0,'11111222,11111222,11144222' 
ADCP,ioos:station:wmo:42887:1,2016-08-02T23:40:00Z,28.1910,-88.4960,48.2,1.2,50.0,99.0,'11111222,11111222,11144222' 
ADCP,ioos:station:wmo:42887:1,2016-08-03T00:00:00Z,28.1910,-88.4960,48.2,1.8,36.0,99.0,'11111222,11111222,11144222' 
ADCP,ioos:station:wmo:42887:1,2016-08-03T00:20:00Z,28.1910,-88.4960,48.2,2.2,17.0,99.0,'11111222,11111222,11144222' 
ADCP,ioos:station:wmo:42887:1,2016-08-03T00:40:00Z,28.1910,-88.4960,48.2,2.1,52.0,99.0,'11111222,11111222,11144222' 
ADCP,ioos:station:wmo:42887:1,2016-08-03T01:00:00Z,28.1910,-88.4960,48.2,2.3,46.0,99.0,'11111222,11111222,11144222' 
ADCP,ioos:station:wmo:42887:1,2016-08-03T01:20:00Z,28.1910,-88.4960,48.2,2.5,53.0,99.0,'11111222,11111222,11144222' 
ADCP,ioos:station:wmo:42887:1,2016-08-03T01:40:00Z,28.1910,-88.4960,48.2,2.5,54.0,99.0,'11111222,11111222,11144222' 
ADCP,ioos:station:wmo:42887:1,2016-08-03T02:00:00Z,28.1910,-88.4960,48.2,2.5,57.0,99.0,'11111222,11111222,11144222' 
ADCP,ioos:station:wmo:42887:1,2016-08-03T02:20:00Z,28.1910,-88.4960,48.2,2.3,49.0,99.0,'11111222,11111222,11144222' 
ADCP,ioos:station:wmo:42887:1,2016-08-03T02:40:00Z,28.1910,-88.4960,48.2,2.3,72.0,99.0,'11111222,11111222,11144222' 
ADCP,ioos:station:wmo:42887:1,2016-08-03T03:00:00Z,28.1910,-88.4960,48.2,2.7,84.0,99.0,'11111222,11111222,11144222' 
ADCP,ioos:station:wmo:42887:1,2016-08-03T03:20:00Z,28.1910,-88.4960,48.2,2.9,68.0,99.0,'11111222,11111222,11144222' 
ADCP,ioos:station:wmo:42887:1,2016-08-03T03:40:00Z,28.1910,-88.4960,48.2,2.3,93.0,99.0,'11111222,11111222,11144222' 
ADCP,ioos:station:wmo:42887:1,2016-08-03T04:00:00Z,28.1910,-88.4960,48.2,3.6,132.0,99.0,'11111222,11111222,11144222' 
ADCP,ioos:station:wmo:42887:1,2016-08-03T04:20:00Z,28.1910,-88.4960,48.2,2.1,108.0,99.0,'11111222,11111222,11144222' 
ADCP,ioos:station:wmo:42887:1,2016-08-03T04:40:00Z,28.1910,-88.4960,48.2,1.4,65.0,99.0,'11111222,11111222,11144222' 
ADCP,ioos:station:wmo:42887:1,2016-08-03T05:00:00Z,28.1910,-88.4960,48.2,3.7,116.0,99.0,'11111222,11111222,11144222' 
ADCP,ioos:station:wmo:42887:1,2016-08-03T05:20:00Z,28.1910,-88.4960,48.2,3.5,141.0,99.0,'11111222,11111222,11144222' 
ADCP,ioos:station:wmo:42887:1,2016-08-03T05:40:00Z,28.1910,-88.4960,48.2,4.0,146.0,99.0,'11111222,11111222,11144222' 
ADCP,ioos:station:wmo:42887:1,2016-08-03T06:00:00Z,28.1910,-88.4960,48.2,2.9,150.0,99.0,'11111222,11111222,11144222' 
ADCP,ioos:station:wmo:42887:1,2016-08-03T06:20:00Z,28.1910,-88.4960,48.2,3.7,154.0,99.0,'11111222,11111222,11144222' 
ADCP,ioos:station:wmo:42887:1,2016-08-03T06:40:00Z,28.1910,-88.4960,48.2,3.6,160.0,99.0,'11111222,11111222,11144222' 
ADCP,ioos:station:wmo:42887:1,2016-08-03T07:00:00Z,28.1910,-88.4960,48.2,2.1,160.0,99.0,'11111222,11111222,11144222' 
ADCP,ioos:station:wmo:42887:1,2016-08-03T07:20:00Z,28.1910,-88.4960,48.2,2.5,175.0,99.0,'11111222,11111222,11144222' 
ADCP,ioos:station:wmo:42887:1,2016-08-03T07:40:00Z,28.1910,-88.4960,48.2,2.4,168.0,99.0,'11111222,11111222,11144222' 
ADCP,ioos:station:wmo:42887:1,2016-08-03T08:00:00Z,28.1910,-88.4960,48.2,2.0,193.0,99.0,'11111222,11111222,11144222' 
ADCP,ioos:station:wmo:42887:1,2016-08-03T08:20:00Z,28.1910,-88.4960,48.2,2.7,183.0,99.0,'11111222,11111222,11144222' 
ADCP,ioos:station:wmo:42887:1,2016-08-03T08:40:00Z,28.1910,-88.4960,48.2,2.5,186.0,99.0,'11111222,11111222,11144222' 
ADCP,ioos:station:wmo:42887:1,2016-08-03T09:00:00Z,28.1910,-88.4960,48.2,2.5,209.0,99.0,'11111222,11111222,11144222' 
ADCP,ioos:station:wmo:42887:1,2016-08-03T09:20:00Z,28.1910,-88.4960,48.2,2.4,197.0,99.0,'11111222,11111222,11144222' 
ADCP,ioos:station:wmo:42887:1,2016-08-03T09:40:00Z,28.1910,-88.4960,48.2,2.1,212.0,99.0,'11111222,11111222,11144222' 
ADCP,ioos:station:wmo:42887:1,2016-08-03T10:00:00Z,28.1910,-88.4960,48.2,2.6,198.0,99.0,'11111222,11111222,11144222' 
ADCP,ioos:station:wmo:42887:1,2016-08-03T10:20:00Z,28.1910,-88.4960,48.2,2.1,201.0,99.0,'11111222,11111222,11144222' 
ADCP,ioos:station:wmo:42887:1,2016-08-03T10:40:00Z,28.1910,-88.4960,48.2,4.0,350.0,99.0,'11111222,11111222,11144222' 
ADCP,ioos:station:wmo:42887:1,2016-08-03T11:00:00Z,28.1910,-88.4960,48.2,0.2,186.0,99.0,'11111222,11111222,11144222' 
ADCP,ioos:station:wmo:42887:1,2016-08-03T11:20:00Z,28.1910,-88.4960,48.2,0.5,212.0,99.0,'11111222,11111222,11144222' 
ADCP,ioos:station:wmo:42887:1,2016-08-03T11:40:00Z,28.1910,-88.4960,48.2,0.6,326.0,99.0,'11111222,11111222,11144222' 
ADCP,ioos:station:wmo:42887:1,2016-08-03T12:00:00Z,28.1910,-88.4960,48.2,0.3,284.0,99.0,'11111222,11111222,11144222' 
ADCP,ioos:station:wmo:42887:1,2016-08-03T12:20:00Z,28.1910,-88.4960,48.2,0.5,239.0,99.0,'11111222,11111222,11144222' 
ADCP,ioos:station:wmo:42887:1,2016-08-03T12:40:00Z,28.1910,-88.4960,48.2,0.3,279.0,99.0,'11111222,11111222,11144222' 
ADCP,ioos:station:wmo:42887:1,2016-08-03T13:00:00Z,28.1910,-88.4960,48.2,0.8,283.0,99.0,'11111222,11111222,11144222' 
ADCP,ioos:station:wmo:42887:1,2016-08-03T13:20:00Z,28.1910,-88.4960,48.2,1.0,277.0,99.0,'11111222,11111222,11144222' 
ADCP,ioos:station:wmo:42887:1,2016-08-03T13:40:00Z,28.1910,-88.4960,48.2,2.1,5.0,99.0,'11111222,11111222,11144222' 
ADCP,ioos:station:wmo:42887:1,2016-08-03T14:00:00Z,28.1910,-88.4960,48.2,0.9,13.0,99.0,'11111222,11111222,11144222' 
ADCP,ioos:station:wmo:42887:1,2016-08-03T14:20:00Z,28.1910,-88.4960,48.2,0.6,127.0,99.0,'11111222,11111222,11144222' 
ADCP,ioos:station:wmo:42887:1,2016-08-03T14:40:00Z,28.1910,-88.4960,48.2,2.4,310.0,99.0,'11111222,11111222,11144222' 
ADCP,ioos:station:wmo:42887:1,2016-08-03T15:00:00Z,28.1910,-88.4960,48.2,4.5,319.0,99.0,'11111222,11111222,11144222' 
ADCP,ioos:station:wmo:42887:1,2016-08-03T15:20:00Z,28.1910,-88.4960,48.2,1.1,329.0,99.0,'11111222,11111222,11144222' 
ADCP,ioos:station:wmo:42887:1,2016-08-03T15:40:00Z,28.1910,-88.4960,48.2,1.0,301.0,99.0,'11111222,11111222,11144222' 
ADCP,ioos:station:wmo:42887:1,2016-08-03T16:00:00Z,28.1910,-88.4960,48.2,2.9,6.0,99.0,'11111222,11111222,11144222' 
ADCP,ioos:station:wmo:42887:1,2016-08-03T16:20:00Z,28.1910,-88.4960,48.2,3.1,356.0,99.0,'11111222,11111222,11144222' 
ADCP,ioos:station:wmo:42887:1,2016-08-03T16:40:00Z,28.1910,-88.4960,48.2,2.5,9.0,99.0,'11111222,11111222,11144222' 
ADCP,ioos:station:wmo:42887:1,2016-08-03T17:00:00Z,28.1910,-88.4960,48.2,2.2,8.0,99.0,'11111222,11111222,11144222' 
ADCP,ioos:station:wmo:42887:1,2016-08-03T17:20:00Z,28.1910,-88.4960,48.2,1.0,346.0,99.0,'11111222,11111222,11144222' 
ADCP,ioos:station:wmo:42887:1,2016-08-03T17:40:00Z,28.1910,-88.4960,48.2,0.6,333.0,99.0,'11111222,11111222,11144222' 
ADCP,ioos:station:wmo:42887:1,2016-08-03T18:00:00Z,28.1910,-88.4960,48.2,2.4,341.0,99.0,'11111222,11111222,11144222' 
ADCP,ioos:station:wmo:42887:1,2016-08-03T18:20:00Z,28.1910,-88.4960,48.2,3.3,309.0,99.0,'11111222,11111222,11144222' 
ADCP,ioos:station:wmo:42887:1,2016-08-03T18:40:00Z,28.1910,-88.4960,48.2,3.7,321.0,99.0,'11111222,11111222,11144222' 
ADCP,ioos:station:wmo:42887:1,2016-08-03T19:00:00Z,28.1910,-88.4960,48.2,1.0,343.0,99.0,'11111222,11111222,11144222' 
ADCP,ioos:station:wmo:42887:1,2016-08-03T19:20:00Z,28.1910,-88.4960,48.2,3.2,351.0,99.0,'11111222,11111222,11144222' 